Regional Weather Roundup
Issued by NWS

Home | Current Version | Previous Version | Text Only | Print | Product List | Glossary On
Versions: 1 2 3 4 5 6 7 8 9 10 11 12 13 14 15 16 17 18 19 20 21 22 23 24 25 26 27 28 29 30 31 32 33 34 35 36 37 38 39 40 41 42 43 44 45 46 47 48 49 50
000
ASUS43 KIND 270609
RWRIN

WEATHER ROUNDUP FOR INDIANA
NATIONAL WEATHER SERVICE INDIANAPOLIS IN
200 AM EDT WED JUL 27 2016

NOTE: "FAIR" INDICATES FEW OR NO CLOUDS BELOW 12,000 FEET WITH NO
SIGNIFICANT WEATHER AND/OR OBSTRUCTIONS TO VISIBILITY.

* - STATION DOES NOT REPORT WEATHER SUCH AS PRECIPITATION OR FOG.

+ - STATION NOT QUALITY CONTROLLED BY THE NATIONAL WEATHER SERVICE.
    USE DATA WITH CAUTION...ESPECIALLY DEWPOINT AND RELATIVE
    HUMIDITY OBSERVATIONS.

INZ001>003-010>013-019-020-270700-
NORTHWEST INDIANA

CITY           SKY/WX    TMP DP  RH WIND       PRES   REMARKS
GARY /AIRPORT/ CLEAR     67  67 100 CALM      30.01F
KNOX *+        CLEAR     64  63  94 W3        30.01F
LA PORTE +     CLEAR    N/A N/A N/A CALM      30.02S
MICHIGAN CITY+ FOG       63  63 100 CALM      30.02S VSB 1/2
MONTICELLO +   CLEAR     66  62  87 CALM      30.01F
6HR MIN TEMP:  66; 6HR MAX TEMP:  81;

RENSSELAER +   CLEAR     66  66 100 CALM      30.02F FOG
VALPARAISO     CLEAR     69  64  84 CALM      30.02F
6HR MIN TEMP:  68; 6HR MAX TEMP:  82;


$$

LMZ046-743>745-270700-
SOUTHERN LAKE MICHIGAN

STATION/POSITION TIME  TEMP    WIND        PRES    WAVE
                       AIR SEA DIR/SP/G            HT
                 (UTC) (F)     (DEG/KT/KT) (MB)    (FT)
BURNS HARBOR     0500   75     170/  2/  4 1016.9S
MICHIGAN CITY    0500   73     130/  2/  3   N/A
5NW MICH CITY    0600   75 77  160/  2/  4   N/A     0

$$

INZ004-005-014>016-021>024-270700-
NORTH CENTRAL INDIANA

CITY           SKY/WX    TMP DP  RH WIND       PRES   REMARKS
GOSHEN         CLEAR     67  63  87 SE3       30.01F
6HR MIN TEMP:  65; 6HR MAX TEMP:  84;

LOGANSPORT +   CLEAR     63  63 100 CALM      30.03S
PERU/GRISSOM   CLEAR     67  65  92 CALM      30.00F
6HR MIN TEMP:  67; 6HR MAX TEMP:  83;

ROCHESTER +    CLEAR     70  68  94 CALM      30.02F
SOUTH BEND     CLEAR     64  62  93 N3        30.02F
6HR MIN TEMP:  64; 6HR MAX TEMP:  82;

WARSAW +       CLEAR     64  64 100 CALM      30.02F

$$

INZ006>009-017-018-025>027-270700-
NORTHEAST INDIANA

CITY           SKY/WX    TMP DP  RH WIND       PRES   REMARKS
ANGOLA *+      CLEAR     64  54  68 CALM      30.02F
AUBURN +       CLEAR     66  61  82 CALM      30.02F
FORT WAYNE     PTCLDY    67  63  87 W5        30.01F
6HR MIN TEMP:  67; 6HR MAX TEMP:  83;

HUNTINGTON +   CLEAR     67  66  96 CALM      30.01F
6HR MIN TEMP:  67; 6HR MAX TEMP:  81;


$$

INZ028-029-035-036-043>045-051>053-270700-
WEST CENTRAL INDIANA

CITY           SKY/WX    TMP DP  RH WIND       PRES   REMARKS
CRAWFORDSVL +  PTCLDY    63  63 100 CALM      30.03S FOG
6HR MIN TEMP:  63; 6HR MAX TEMP:  78;

GREENCASTLE +  PTCLDY    68  68 100 CALM      30.03S
LAFAYETTE      CLEAR     66  66 100 NW3       30.01F
6HR MIN TEMP:  66; 6HR MAX TEMP:  82;

TERRE HAUTE    PTCLDY    70  67  90 N3        30.00F
6HR MIN TEMP:  70; 6HR MAX TEMP:  82;


$$

INZ030>032-037>040-046>048-054>057-064-065-270700-
CENTRAL INDIANA

CITY           SKY/WX    TMP DP  RH WIND       PRES   REMARKS
INDIANAPOLIS   CLOUDY    73  66  78 CALM      30.02F
6HR MIN TEMP:  72; 6HR MAX TEMP:  81;

-EAGLE CREEK   PTCLDY    74  69  85 N3        30.01F
6HR MIN TEMP:  73; 6HR MAX TEMP:  82;

KOKOMO *+      CLEAR     64  57  77 CALM      30.02F
6HR MIN TEMP:  64; 6HR MAX TEMP:  84;

MARION +       MOCLDY    64  64  97 CALM      30.03S
MT COMFORT *+  PTCLDY    66  64  94 CALM      30.03S
SHELBYVILLE    PTCLDY    71  67  87 CALM      30.01S
6HR MIN TEMP:  70; 6HR MAX TEMP:  83;

ZIONSVILLE +   CLEAR     65  64  99 CALM      30.03F
6HR MIN TEMP:  65; 6HR MAX TEMP:  77;


$$

INZ033-034-041-042-049-050-058-059-270700-
EAST CENTRAL INDIANA

CITY           SKY/WX    TMP DP  RH WIND       PRES   REMARKS
MUNCIE         PTCLDY    69  67  93 CALM      30.03S
6HR MIN TEMP:  68; 6HR MAX TEMP:  82;


$$

INZ060-061-067>069-081>083-085>088-270700-
SOUTHWEST INDIANA

CITY           SKY/WX    TMP DP  RH WIND       PRES   REMARKS
EVANSVILLE     CLEAR     78  74  87 CALM      29.98F
6HR MIN TEMP:  77; 6HR MAX TEMP:  82;

HUNTINGBURG *+ CLOUDY    75  72  88 CALM      29.99S
6HR MIN TEMP:  75; 6HR MAX TEMP:  84;

WASHINGTON +   PTCLDY    74  74 100 MISG      29.98F
6HR MIN TEMP:  74; 6HR MAX TEMP:  82;


$$

INZ062-063-066-070>080-084-089>092-270700-
SOUTH CENTRAL AND SOUTHEAST INDIANA

CITY           SKY/WX    TMP DP  RH WIND       PRES   REMARKS
BLOOMINGTON    CLOUDY    71  69  93 CALM      30.01F FOG
6HR MIN TEMP:  70; 6HR MAX TEMP:  81;

MADISON *+     CLOUDY    73  72  94 CALM      30.03S VSB 1/4
NORTH VERNON + MOCLDY   N/A N/A N/A CALM      30.01F HAZE

$$




USA.gov is the U.S. government's official web portal to all federal, state and local government web resources and services.